Oscoda, MI

7:24 PM EDT on March 29, 2017 (GMT -0400)
Oscoda-Wurtsmith

Weather History for KOSC - November, 2012

Change the Weather History Date:

Thursday, November 22, 2012

  Actual Average Record
Temperature  
Mean Temperature 49 °F -  
Max Temperature 57 °F 41 °F 62 °F (2010)
Min Temperature 41 °F 28 °F 11 °F (2015)
Degree Days  
Heating Degree Days 16    
Moisture  
Dew Point 42 °F    
Average Humidity 78    
Maximum Humidity 97    
Minimum Humidity 55    
Precipitation  
Precipitation 0.01 in - - ()
Sea Level Pressure  
Sea Level Pressure 29.89 in    
Wind  
Wind Speed 13 mph (SSW)    
Max Wind Speed 23 mph    
Max Gust Speed 31 mph    
Visibility 6 miles    
Events Rain    
Averages and records for this station are not official NWS values.
T = Trace of Precipitation, MM = Missing Value Source: NWS Daily Summary

Daily Weather History Graph

Daily Weather History Graph

Search for Another Location

Airport or City:

Trip Planner

Search our weather history database for the weather conditions in past years. The results will help you decide how hot, cold, wet, or windy it might be!

Date:

Astronomy

Nov. 22, 2012 Rise Set
Actual Time 7:39 AM EST 4:59 PM EST
Civil Twilight 7:07 AM EST 5:31 PM EST
Nautical Twilight 6:31 AM EST 6:07 PM EST
Astronomical Twilight 5:56 AM EST 6:42 PM EST
Moon 1:55 PM EST (11/22) 1:46 AM EST (11/22)
Length of Visible Light 10h 24m
Length of Day
9h 20m
Waxing Gibbous, 71% of the Moon is Illuminated
Nov 22
Waxing Gibbous
Nov 28
Full
Dec 6
Last Quarter
Dec 13
New
Dec 20
First Quarter

Hourly Weather History & Observations

Time (EST) Temp. Windchill Dew Point Humidity Pressure Visibility Wind Dir Wind Speed Gust Speed Precip Events Conditions
12:14 AM 44.6 °F 38.4 °F 41.0 °F 87% 30.04 in 5.0 mi SSW 12.7 mph - N/A   Clear
12:34 AM 43.5 °F 37.5 °F 40.6 °F 90% 30.04 in 4.0 mi SSW 11.5 mph - N/A   Clear
12:54 AM 42.8 °F 36.6 °F 40.3 °F 91% 30.03 in 4.0 mi SSW 11.5 mph - N/A   Clear
1:14 AM 42.8 °F 36.6 °F 40.5 °F 91% 30.03 in 4.0 mi SW 11.5 mph - N/A   Clear
1:34 AM 43.2 °F 37.0 °F 41.0 °F 92% 30.03 in 4.0 mi SSW 11.5 mph - N/A   Clear
1:54 AM 43.0 °F 36.4 °F 40.6 °F 91% 30.03 in 4.0 mi SSW 12.7 mph - N/A   Clear
2:14 AM 42.8 °F 36.6 °F 40.6 °F 92% 30.03 in 3.0 mi SSW 11.5 mph 17.3 mph N/A   Clear
2:34 AM 42.1 °F 35.7 °F 40.3 °F 93% 30.03 in 3.0 mi SSW 11.5 mph 16.1 mph N/A   Clear
2:54 AM 41.9 °F 35.4 °F 40.3 °F 94% 30.03 in 3.0 mi SSW 11.5 mph - N/A   Clear
3:14 AM 41.9 °F 35.0 °F 40.3 °F 94% 30.02 in 2.5 mi SSW 12.7 mph 17.3 mph N/A   Clear
3:34 AM 41.5 °F 34.6 °F 40.1 °F 95% 30.02 in 2.5 mi SSW 12.7 mph - N/A   Clear
3:54 AM 41.2 °F 33.7 °F 40.1 °F 96% 30.01 in 2.0 mi SSW 13.8 mph - N/A   Clear
4:14 AM 41.0 °F 34.3 °F 39.7 °F 95% 30.01 in 2.0 mi SW 11.5 mph - N/A   Clear
4:34 AM 41.2 °F 34.5 °F 40.1 °F 96% 30.01 in 2.0 mi SSW 11.5 mph 16.1 mph N/A   Clear
4:54 AM 41.2 °F 35.0 °F 40.1 °F 96% 30.01 in 1.8 mi SSW 10.4 mph 17.3 mph N/A   Mist
5:14 AM 41.0 °F 34.3 °F 40.1 °F 97% 30.01 in 1.8 mi SSW 11.5 mph - N/A   Mist
5:34 AM 41.2 °F 35.0 °F 40.1 °F 96% 30.01 in 1.8 mi SSW 10.4 mph - N/A   Mist
5:54 AM 41.0 °F 35.8 °F 40.1 °F 97% 30.01 in 1.8 mi SSW 8.1 mph - N/A   Mostly Cloudy
6:14 AM 41.2 °F 35.0 °F 40.3 °F 97% 30.01 in 1.5 mi SSW 10.4 mph - N/A   Overcast
6:33 AM 41.9 °F 35.4 °F 41.0 °F 97% 30.00 in 1.8 mi SSW 11.5 mph - N/A   Overcast
6:54 AM 42.1 °F 35.7 °F 41.0 °F 96% 30.00 in 1.5 mi SSW 11.5 mph - N/A   Overcast
7:14 AM 42.1 °F 36.1 °F 41.2 °F 97% 29.99 in 1.5 mi SSW 10.4 mph 16.1 mph N/A   Overcast
7:35 AM 42.1 °F 35.2 °F 41.2 °F 97% 29.99 in 1.5 mi SSW 12.7 mph 16.1 mph N/A   Overcast
7:54 AM 42.1 °F 35.2 °F 41.2 °F 97% 29.99 in 0.8 mi SW 12.7 mph - N/A   Overcast
8:14 AM 42.6 °F 35.6 °F 41.7 °F 97% 29.99 in 0.8 mi SSW 13.8 mph 19.6 mph N/A   Overcast
8:34 AM 43.0 °F 35.7 °F 41.9 °F 96% 29.98 in 1.0 mi SSW 15.0 mph 19.6 mph N/A   Overcast
8:54 AM 43.7 °F 36.0 °F 42.6 °F 96% 29.98 in 1.0 mi SW 17.3 mph - N/A   Overcast
9:14 AM 44.4 °F 37.9 °F 43.0 °F 95% 29.98 in 1.2 mi SW 13.8 mph 20.7 mph N/A   Overcast
9:34 AM 45.1 °F 38.4 °F 43.3 °F 93% 29.97 in 1.5 mi SW 15.0 mph - N/A   Overcast
9:54 AM 45.5 °F 38.6 °F 43.2 °F 92% 29.97 in 1.5 mi SW 16.1 mph 23.0 mph N/A   Overcast
10:14 AM 45.7 °F 38.6 °F 43.3 °F 92% 29.97 in 1.8 mi SW 17.3 mph 20.7 mph N/A   Overcast
10:34 AM 46.4 °F 39.5 °F 43.5 °F 90% 29.97 in 2.0 mi SSW 17.3 mph - N/A   Overcast
10:54 AM 46.8 °F - 43.7 °F 89% 29.97 in 2.0 mi SW 16.1 mph 21.9 mph N/A   Overcast
11:14 AM 48.2 °F - 44.1 °F 86% 29.96 in 2.5 mi SW 16.1 mph 23.0 mph N/A   Overcast
11:34 AM 50.0 °F - 44.8 °F 82% 29.95 in 3.0 mi SSW 15.0 mph 21.9 mph N/A   Haze
11:54 AM 52.2 °F - 44.6 °F 75% 29.93 in 4.0 mi SW 16.1 mph 20.7 mph N/A   Haze
12:14 PM 54.0 °F - 44.4 °F 70% 29.92 in 5.0 mi SSW 15.0 mph 18.4 mph N/A   Haze
12:34 PM 54.1 °F - 44.2 °F 69% 29.91 in 5.0 mi SSW 11.5 mph 18.4 mph N/A   Haze
12:54 PM 54.7 °F - 44.4 °F 68% 29.90 in 5.0 mi SSW 11.5 mph 19.6 mph N/A   Haze
1:14 PM 55.2 °F - 44.4 °F 67% 29.88 in 5.0 mi South 10.4 mph - N/A   Haze
1:34 PM 55.8 °F - 43.9 °F 64% 29.87 in 7.0 mi SSW 16.1 mph 20.7 mph N/A   Clear
1:54 PM 56.7 °F - 43.9 °F 62% 29.87 in 7.0 mi SSW 13.8 mph - N/A   Clear
2:14 PM 57.2 °F - 44.1 °F 62% 29.86 in 7.0 mi SSW 13.8 mph 20.7 mph N/A   Clear
2:34 PM 57.6 °F - 43.5 °F 59% 29.85 in 10.0 mi South 15.0 mph 20.7 mph N/A   Clear
2:54 PM 57.4 °F - 43.0 °F 59% 29.84 in 10.0 mi South 16.1 mph 21.9 mph N/A   Clear
3:14 PM 57.6 °F - 42.4 °F 57% 29.83 in 10.0 mi SSW 17.3 mph 29.9 mph N/A   Clear
3:34 PM 56.8 °F - 41.9 °F 57% 29.84 in 10.0 mi SSW 13.8 mph 23.0 mph N/A   Clear
3:54 PM 57.2 °F - 41.0 °F 55% 29.81 in 10.0 mi South 13.8 mph 21.9 mph N/A   Clear
4:14 PM 56.3 °F - 40.3 °F 55% 29.81 in 10.0 mi South 13.8 mph 19.6 mph N/A   Clear
4:34 PM 55.4 °F - 40.1 °F 56% 29.81 in 10.0 mi SSW 15.0 mph 20.7 mph N/A   Clear
4:54 PM 54.3 °F - 39.6 °F 57% 29.80 in 10.0 mi South 13.8 mph 18.4 mph N/A   Clear
5:14 PM 54.1 °F - 39.0 °F 57% 29.80 in 10.0 mi SSW 12.7 mph 19.6 mph N/A   Clear
5:34 PM 54.1 °F - 38.5 °F 55% 29.80 in 10.0 mi SSW 13.8 mph 20.7 mph N/A   Scattered Clouds
5:54 PM 53.4 °F - 38.5 °F 57% 29.79 in 10.0 mi SSW 13.8 mph 18.4 mph N/A   Mostly Cloudy
6:14 PM 53.2 °F - 38.5 °F 57% 29.78 in 10.0 mi SSW 13.8 mph 21.9 mph N/A   Mostly Cloudy
6:34 PM 54.1 °F - 38.3 °F 55% 29.78 in 10.0 mi South 11.5 mph 25.3 mph N/A   Mostly Cloudy
6:54 PM 53.6 °F - 38.5 °F 57% 29.76 in 10.0 mi South 15.0 mph 20.7 mph N/A   Mostly Cloudy
7:14 PM 53.6 °F - 39.2 °F 58% 29.75 in 10.0 mi South 16.1 mph 20.7 mph N/A   Scattered Clouds
7:34 PM 54.5 °F - 39.4 °F 57% 29.75 in 10.0 mi South 16.1 mph 26.5 mph 0.01 in   Scattered Clouds
7:53 PM 54.5 °F - 39.6 °F 57% 29.75 in 10.0 mi SSW 17.3 mph 25.3 mph 0.01 in   Mostly Cloudy
8:14 PM 54.1 °F - 40.1 °F 59% 29.74 in 10.0 mi SSW 20.7 mph 31.1 mph N/A   Mostly Cloudy
8:34 PM 53.6 °F - 40.3 °F 61% 29.73 in 10.0 mi SSW 18.4 mph 26.5 mph N/A   Mostly Cloudy
8:53 PM 54.0 °F - 40.1 °F 59% 29.73 in 10.0 mi SSW 17.3 mph 27.6 mph N/A   Overcast
9:14 PM 54.0 °F - 40.5 °F 60% 29.72 in 10.0 mi SSW 21.9 mph 31.1 mph N/A   Overcast
9:34 PM 52.5 °F - 42.3 °F 68% 29.71 in 10.0 mi SSW 16.1 mph 28.8 mph N/A   Scattered Clouds
9:54 PM 52.7 °F - 42.1 °F 67% 29.70 in 10.0 mi SSW 18.4 mph 26.5 mph N/A   Clear
10:14 PM 52.7 °F - 42.1 °F 67% 29.70 in 10.0 mi SSW 18.4 mph 28.8 mph N/A   Scattered Clouds
10:34 PM 53.1 °F - 42.8 °F 68% 29.68 in 10.0 mi SSW 18.4 mph 26.5 mph N/A   Mostly Cloudy
10:54 PM 51.8 °F - 44.6 °F 76% 29.68 in 10.0 mi SSW 23.0 mph 28.8 mph N/A Rain Rain
11:14 PM 51.8 °F - 46.4 °F 82% 29.67 in 10.0 mi SSW 20.7 mph 27.6 mph N/A   Overcast
11:34 PM 51.8 °F - 46.2 °F 81% 29.67 in 10.0 mi SSW 17.3 mph 28.8 mph N/A   Overcast
11:54 PM 51.1 °F - 46.0 °F 83% 29.66 in 10.0 mi SSW 16.1 mph 20.7 mph N/A   Overcast